Regional Weather Roundup
Issued by NWS

Home | Current Version | Previous Version | Graphics & Text | Print | Product List | Glossary On
Versions: 1 2 3 4 5 6 7 8 9 10 11 12 13 14 15 16 17 18 19 20 21 22 23 24 25 26 27 28 29 30 31 32 33 34 35 36 37 38 39 40 41 42 43 44 45 46 47 48 49 50
000
ASUS43 KBIS 201510
RWRND

NORTH DAKOTA REGIONAL WEATHER ROUNDUP
NATIONAL WEATHER SERVICE BISMARCK ND
1000 AM CDT WED AUG 20 2014

NOTE: "FAIR" INDICATES FEW OR NO CLOUDS BELOW 12,000 FEET WITH NO
SIGNIFICANT WEATHER AND/OR OBSTRUCTIONS TO VISIBILITY.


NDZ001>003-009>011-017-201600-
NORTHWEST NORTH DAKOTA

CITY           SKY/WX    TMP DP  RH WIND       PRES   REMARKS
WILLISTON      CLOUDY    70  64  81 SE7       29.63F
MINOT          MOSUNNY   76  63  64 SE9       29.67R
MINOT AFB      MOSUNNY   73  66  78 S12       29.65S
$$

NDZ018>021-031>035-040>046-201600-
SOUTHWEST NORTH DAKOTA

CITY           SKY/WX    TMP DP  RH WIND       PRES   REMARKS
BISMARCK       CLOUDY    74  65  73 S9        29.72S
DICKINSON      CLOUDY    71  63  75 S10       29.68R
GARRISON         N/A     71  65  81 SE6       29.67F
HETTINGER ARPT CLOUDY    69  63  81 SE7       29.72R
$$

NDZ004>008-012>016-024-026-027-054-201600-
NORTHEAST NORTH DAKOTA

CITY           SKY/WX    TMP DP  RH WIND       PRES   REMARKS
GRAND FORKS    MOSUNNY   73  65  75 SE10      29.78S
GRND FRKS AFB  MOSUNNY   73  69  85 SE8       29.79S
DEVILS LAKE    SUNNY     73  63  68 SE10      29.73F
$$

NDZ022-023-025-028>030-036>039-047>053-201600-
SOUTHEAST NORTH DAKOTA

CITY           SKY/WX    TMP DP  RH WIND       PRES   REMARKS
FARGO          SUNNY     75  65  70 SE14      29.78F
JAMESTOWN      MOSUNNY   73  65  75 SE9       29.76S
$$



USA.gov is the U.S. government's official web portal to all federal, state and local government web resources and services.